| time (UTC) | temp C | wind direction | speed KPH | gust KPH | rain 1hr cm | rain 24hr cm | rain mn cm | humidity % | barometer mb |
| 20260505121850 | 30 | 134 | 4.8 | 8.0 | 0.00 | 0.00 | 0.00 | 74 | 1001.0 |
| 20260505121351 | 30 | 133 | 4.8 | 9.7 | 0.00 | 0.00 | 0.00 | 74 | 1001.0 |
| 20260505120851 | 30 | 162 | 8.0 | 11.3 | 0.00 | 0.00 | 0.00 | 74 | 1001.0 |
| 20260505120350 | 30 | 140 | 11.3 | 17.7 | 0.00 | 0.00 | 0.00 | 73 | 1001.0 |
| 20260505115850 | 31 | 78 | 1.6 | 3.2 | 0.00 | 0.00 | 0.00 | 72 | 1001.0 |
| 20260505115351 | 31 | 145 | 8.0 | 12.9 | 0.00 | 0.00 | 0.00 | 70 | 1001.0 |
| 20260505114851 | 31 | 176 | 4.8 | 4.8 | 0.00 | 0.00 | 0.00 | 70 | 1001.0 |
| 20260505114351 | 31 | 95 | 3.2 | 8.0 | 0.00 | 0.00 | 0.00 | 69 | 1001.0 |
| 20260505113851 | 31 | 180 | 20.9 | 25.7 | 0.00 | 0.00 | 0.00 | 69 | 1001.0 |
| 20260505113351 | 31 | 126 | 11.3 | 14.5 | 0.00 | 0.00 | 0.00 | 68 | 1001.0 |
| 20260505112851 | 31 | 178 | 17.7 | 20.9 | 0.00 | 0.00 | 0.00 | 68 | 1001.0 |
| 20260505112350 | 31 | 180 | 8.0 | 11.3 | 0.00 | 0.00 | 0.00 | 68 | 1001.0 |
| 20260505111851 | 31 | 133 | 3.2 | 3.2 | 0.00 | 0.00 | 0.00 | 67 | 1001.0 |
| 20260505111352 | 31 | 157 | 3.2 | 3.2 | 0.00 | 0.00 | 0.00 | 69 | 1001.0 |
| 20260505110851 | 31 | 145 | 9.7 | 12.9 | 0.00 | 0.00 | 0.00 | 69 | 1001.0 |
| 20260505110350 | 31 | 207 | 8.0 | 9.7 | 0.00 | 0.00 | 0.00 | 68 | 1001.0 |
| 20260505101850 | 32 | 190 | 11.3 | 14.5 | 0.00 | 0.00 | 0.00 | 63 | 1001.0 |
| 20260505101351 | 32 | 145 | 11.3 | 12.9 | 0.00 | 0.00 | 0.00 | 63 | 1001.0 |
| 20260505100850 | 32 | 148 | 8.0 | 12.9 | 0.00 | 0.00 | 0.00 | 62 | 1002.0 |
| 20260505100350 | 32 | 180 | 11.3 | 12.9 | 0.00 | 0.00 | 0.00 | 60 | 1002.0 |
| 20260505095851 | 32 | 142 | 8.0 | 12.9 | 0.00 | 0.00 | 0.00 | 61 | 1001.0 |
| 20260505095352 | 32 | 49 | 3.2 | 4.8 | 0.00 | 0.00 | 0.00 | 62 | 1001.0 |
| 20260505094850 | 32 | 140 | 9.7 | 12.9 | 0.00 | 0.00 | 0.00 | 60 | 1002.0 |
| 20260505094351 | 32 | 142 | 14.5 | 17.7 | 0.00 | 0.00 | 0.00 | 61 | 1002.0 |
| 20260505093851 | 33 | 131 | 17.7 | 17.7 | 0.00 | 0.00 | 0.00 | 60 | 1002.0 |
| 20260505093351 | 33 | 169 | 12.9 | 17.7 | 0.00 | 0.00 | 0.00 | 60 | 1002.0 |
| 20260505092850 | 32 | 138 | 14.5 | 17.7 | 0.00 | 0.00 | 0.00 | 60 | 1002.0 |
| 20260505092351 | 32 | 121 | 12.9 | 14.5 | 0.00 | 0.00 | 0.00 | 61 | 1002.0 |
| 20260505091851 | 32 | 173 | 8.0 | 9.7 | 0.00 | 0.00 | 0.00 | 60 | 1002.0 |
| 20260505091351 | 32 | 98 | 6.4 | 9.7 | 0.00 | 0.00 | 0.00 | 61 | 1002.0 |
| 20260505090851 | 33 | 104 | 12.9 | 17.7 | 0.00 | 0.00 | 0.00 | 60 | 1002.0 |
| 20260505090351 | 32 | 190 | 6.4 | 9.7 | 0.00 | 0.00 | 0.00 | 61 | 1002.0 |
| 20260505085850 | 33 | 167 | 11.3 | 14.5 | 0.00 | 0.00 | 0.00 | 61 | 1002.0 |
| 20260505085350 | 33 | 180 | 16.1 | 17.7 | 0.00 | 0.00 | 0.00 | 60 | 1002.0 |
| 20260505084850 | 33 | 99 | 11.3 | 16.1 | 0.00 | 0.00 | 0.00 | 60 | 1002.0 |
| 20260505084351 | 33 | 157 | 6.4 | 9.7 | 0.00 | 0.00 | 0.00 | 60 | 1002.0 |
| 20260505083851 | 32 | 216 | 4.8 | 8.0 | 0.00 | 0.00 | 0.00 | 59 | 1002.0 |
| 20260505083356 | 33 | 68 | 9.7 | 11.3 | 0.00 | 0.00 | 0.00 | 58 | 1002.0 |
| 20260505082850 | 33 | 148 | 11.3 | 14.5 | 0.00 | 0.00 | 0.00 | 57 | 1002.0 |
| 20260505082350 | 33 | 107 | 8.0 | 11.3 | 0.00 | 0.00 | 0.00 | 56 | 1003.0 |
| 20260505081851 | 33 | 190 | 8.0 | 9.7 | 0.00 | 0.00 | 0.00 | 55 | 1003.0 |
| 20260505081354 | 33 | 157 | 12.9 | 16.1 | 0.00 | 0.00 | 0.00 | 55 | 1002.0 |
| 20260505080851 | 33 | 140 | 6.4 | 12.9 | 0.00 | 0.00 | 0.00 | 55 | 1002.0 |
| 20260505080351 | 33 | 129 | 8.0 | 9.7 | 0.00 | 0.00 | 0.00 | 55 | 1003.0 |
| 20260505075850 | 33 | 201 | 8.0 | 12.9 | 0.00 | 0.00 | 0.00 | 55 | 1003.0 |
| 20260505075350 | 34 | 84 | 6.4 | 9.7 | 0.00 | 0.00 | 0.00 | 54 | 1003.0 |
| 20260505074851 | 33 | 198 | 16.1 | 17.7 | 0.00 | 0.00 | 0.00 | 55 | 1003.0 |
| 20260505074352 | 33 | 146 | 9.7 | 14.5 | 0.00 | 0.00 | 0.00 | 55 | 1003.0 |
| 20260505073852 | 33 | 168 | 12.9 | 14.5 | 0.00 | 0.00 | 0.00 | 55 | 1003.0 |
| 20260505073353 | 34 | 147 | 8.0 | 9.7 | 0.00 | 0.00 | 0.00 | 54 | 1003.0 |
| 20260505072851 | 34 | 193 | 8.0 | 9.7 | 0.00 | 0.00 | 0.00 | 55 | 1003.0 |
| 20260505072352 | 34 | 93 | 3.2 | 4.8 | 0.00 | 0.00 | 0.00 | 54 | 1003.0 |
| 20260505071852 | 34 | 176 | 8.0 | 9.7 | 0.00 | 0.00 | 0.00 | 53 | 1003.0 |
| 20260505071350 | 35 | 161 | 3.2 | 4.8 | 0.00 | 0.00 | 0.00 | 53 | 1003.0 |
| 20260505070851 | 35 | 198 | 9.7 | 14.5 | 0.00 | 0.00 | 0.00 | 53 | 1003.0 |
| 20260505070351 | 35 | 190 | 8.0 | 12.9 | 0.00 | 0.00 | 0.00 | 53 | 1003.0 |
| 20260505065851 | 35 | 96 | 4.8 | 4.8 | 0.00 | 0.00 | 0.00 | 51 | 1003.0 |
| 20260505065351 | 35 | 184 | 9.7 | 11.3 | 0.00 | 0.00 | 0.00 | 52 | 1004.0 |
| 20260505064851 | 35 | 147 | 8.0 | 11.3 | 0.00 | 0.00 | 0.00 | 53 | 1003.0 |
| 20260505064351 | 35 | 72 | 1.6 | 4.8 | 0.00 | 0.00 | 0.00 | 52 | 1003.0 |
| 20260505063851 | 35 | 145 | 3.2 | 3.2 | 0.00 | 0.00 | 0.00 | 54 | 1004.0 |
| 20260505063351 | 35 | 42 | 3.2 | 8.0 | 0.00 | 0.00 | 0.00 | 53 | 1004.0 |
| 20260505062852 | 35 | 148 | 8.0 | 9.7 | 0.00 | 0.00 | 0.00 | 49 | 1004.0 |
| 20260505062352 | 35 | 177 | 3.2 | 3.2 | 0.00 | 0.00 | 0.00 | 49 | 1004.0 |
| 20260505061852 | 35 | 164 | 1.6 | 3.2 | 0.00 | 0.00 | 0.00 | 49 | 1003.0 |
| 20260505061351 | 35 | 196 | 3.2 | 4.8 | 0.00 | 0.00 | 0.00 | 49 | 1004.0 |
| 20260505060853 | 35 | 184 | 8.0 | 9.7 | 0.00 | 0.00 | 0.00 | 49 | 1004.0 |
| 20260505060352 | 35 | 140 | 3.2 | 3.2 | 0.00 | 0.00 | 0.00 | 50 | 1004.0 |
| 20260505055851 | 35 | 179 | 1.6 | 3.2 | 0.00 | 0.00 | 0.00 | 50 | 1004.0 |
| 20260505055351 | 35 | 196 | 0.0 | 1.6 | 0.00 | 0.00 | 0.00 | 50 | 1004.0 |
| 20260505054851 | 35 | 107 | 3.2 | 3.2 | 0.00 | 0.00 | 0.00 | 51 | 1004.0 |
| 20260505054350 | 35 | 122 | 4.8 | 4.8 | 0.00 | 0.00 | 0.00 | 50 | 1004.0 |
| 20260505053851 | 34 | 170 | 0.0 | 0.0 | 0.00 | 0.00 | 0.00 | 51 | 1004.0 |
| 20260505053354 | 35 | 170 | 4.8 | 4.8 | 0.00 | 0.00 | 0.00 | 51 | 1004.0 |
| 20260505052850 | 35 | 199 | 0.0 | 1.6 | 0.00 | 0.00 | 0.00 | 49 | 1004.0 |
| 20260505052351 | 35 | 294 | 1.6 | 1.6 | 0.00 | 0.00 | 0.00 | 49 | 1005.0 |
| 20260505051850 | 35 | 260 | 0.0 | 0.0 | 0.00 | 0.00 | 0.00 | 47 | 1004.0 |
| 20260505051351 | 35 | 89 | 0.0 | 0.0 | 0.00 | 0.00 | 0.00 | 49 | 1004.0 |
| 20260505050850 | 35 | 198 | 0.0 | 0.0 | 0.00 | 0.00 | 0.00 | 50 | 1004.0 |
| 20260505050350 | 34 | 159 | 0.0 | 0.0 | 0.00 | 0.00 | 0.00 | 50 | 1004.0 |
| 20260505041352 | 32 | 237 | 1.6 | 1.6 | 0.00 | 0.00 | 0.00 | 56 | 1005.0 |
| 20260505040850 | 32 | 216 | 4.8 | 8.0 | 0.00 | 0.00 | 0.00 | 55 | 1004.0 |
| 20260505040350 | 32 | 185 | 6.4 | 8.0 | 0.00 | 0.00 | 0.00 | 55 | 1004.0 |
| 20260505035851 | 31 | 206 | 4.8 | 8.0 | 0.00 | 0.00 | 0.00 | 58 | 1004.0 |
| 20260505035350 | 32 | 185 | 1.6 | 1.6 | 0.00 | 0.00 | 0.00 | 58 | 1004.0 |
| 20260505034851 | 31 | 182 | 3.2 | 4.8 | 0.00 | 0.00 | 0.00 | 59 | 1004.0 |
| 20260505034351 | 31 | 207 | 3.2 | 3.2 | 0.00 | 0.00 | 0.00 | 58 | 1004.0 |
| 20260505033850 | 31 | 203 | 3.2 | 4.8 | 0.00 | 0.00 | 0.00 | 59 | 1004.0 |
| 20260505033351 | 31 | 161 | 3.2 | 3.2 | 0.00 | 0.00 | 0.00 | 61 | 1004.0 |
| 20260505032851 | 32 | 291 | 8.0 | 9.7 | 0.00 | 0.00 | 0.00 | 59 | 1004.0 |
| 20260505032351 | 32 | 236 | 1.6 | 1.6 | 0.00 | 0.00 | 0.00 | 59 | 1004.0 |
| 20260505031851 | 32 | 265 | 4.8 | 4.8 | 0.00 | 0.00 | 0.00 | 59 | 1004.0 |
| 20260505031351 | 32 | 244 | 1.6 | 3.2 | 0.00 | 0.00 | 0.00 | 58 | 1004.0 |
| 20260505030850 | 31 | 166 | 0.0 | 0.0 | 0.00 | 0.00 | 0.00 | 60 | 1004.0 |
| 20260505030350 | 31 | 258 | 4.8 | 4.8 | 0.00 | 0.00 | 0.00 | 59 | 1004.0 |
| 20260505025851 | 32 | 298 | 4.8 | 4.8 | 0.00 | 0.00 | 0.00 | 57 | 1004.0 |
| 20260505025351 | 32 | 280 | 1.6 | 1.6 | 0.00 | 0.00 | 0.00 | 57 | 1004.0 |
| 20260505024850 | 32 | 143 | 1.6 | 1.6 | 0.00 | 0.00 | 0.00 | 56 | 1004.0 |
| 20260505024350 | 32 | 160 | 0.0 | 0.0 | 0.00 | 0.00 | 0.00 | 58 | 1004.0 |
| 20260505023851 | 32 | 269 | 4.8 | 8.0 | 0.00 | 0.00 | 0.00 | 57 | 1004.0 |
| 20260505023350 | 32 | 246 | 4.8 | 4.8 | 0.00 | 0.00 | 0.00 | 56 | 1004.0 |
| 20260505022851 | 32 | 247 | 0.0 | 1.6 | 0.00 | 0.00 | 0.00 | 55 | 1004.0 |
| 20260505022351 | 32 | 218 | 0.0 | 0.0 | 0.00 | 0.00 | 0.00 | 55 | 1004.0 |
| 20260505021851 | 32 | 234 | 0.0 | 1.6 | 0.00 | 0.00 | 0.00 | 54 | 1004.0 |
| 20260505021350 | 32 | 135 | 0.0 | 1.6 | 0.00 | 0.00 | 0.00 | 56 | 1003.0 |
| 20260505020852 | 32 | 170 | 0.0 | 0.0 | 0.00 | 0.00 | 0.00 | 56 | 1003.0 |
| 20260505020350 | 32 | 146 | 0.0 | 1.6 | 0.00 | 0.00 | 0.00 | 55 | 1003.0 |
| 20260505015850 | 32 | 130 | 0.0 | 0.0 | 0.00 | 0.00 | 0.00 | 56 | 1004.0 |
| 20260505015350 | 31 | 142 | 0.0 | 0.0 | 0.00 | 0.00 | 0.00 | 58 | 1003.0 |
| 20260505014851 | 31 | 82 | 1.6 | 1.6 | 0.00 | 0.00 | 0.00 | 57 | 1003.0 |
| 20260505014351 | 31 | 242 | 1.6 | 1.6 | 0.00 | 0.00 | 0.00 | 58 | 1003.0 |
| 20260505013851 | 30 | 160 | 0.0 | 0.0 | 0.00 | 0.00 | 0.00 | 59 | 1003.0 |
| 20260505013351 | 30 | 175 | 0.0 | 0.0 | 0.00 | 0.00 | 0.00 | 60 | 1003.0 |
| 20260505012851 | 30 | 177 | 0.0 | 0.0 | 0.00 | 0.00 | 0.00 | 61 | 1003.0 |
| 20260505012350 | 29 | 189 | 0.0 | 0.0 | 0.00 | 0.00 | 0.00 | 62 | 1003.0 |
| 20260505011850 | 29 | 158 | 3.2 | 3.2 | 0.00 | 0.00 | 0.00 | 62 | 1003.0 |
| 20260505011350 | 29 | 182 | 1.6 | 1.6 | 0.00 | 0.00 | 0.00 | 63 | 1003.0 |
| 20260505010851 | 29 | 170 | 0.0 | 0.0 | 0.00 | 0.00 | 0.00 | 63 | 1003.0 |
| 20260505010350 | 29 | 179 | 0.0 | 0.0 | 0.00 | 0.00 | 0.00 | 63 | 1003.0 |
| 20260505005851 | 29 | 172 | 0.0 | 0.0 | 0.00 | 0.00 | 0.00 | 63 | 1003.0 |
| 20260505005351 | 29 | 172 | 0.0 | 0.0 | 0.00 | 0.00 | 0.00 | 63 | 1003.0 |
| 20260505004851 | 29 | 175 | 0.0 | 0.0 | 0.00 | 0.00 | 0.00 | 63 | 1003.0 |
| 20260505004350 | 28 | 173 | 1.6 | 1.6 | 0.00 | 0.00 | 0.00 | 64 | 1003.0 |
| 20260505003850 | 28 | 177 | 0.0 | 0.0 | 0.00 | 0.00 | 0.00 | 64 | 1002.0 |
| 20260505003351 | 28 | 178 | 1.6 | 1.6 | 0.00 | 0.00 | 0.00 | 64 | 1003.0 |
| 20260505002851 | 28 | 190 | 1.6 | 1.6 | 0.00 | 0.00 | 0.00 | 64 | 1002.0 |
| 20260505002351 | 28 | 184 | 0.0 | 0.0 | 0.00 | 0.00 | 0.00 | 64 | 1002.0 |
| 20260505001850 | 28 | 184 | 1.6 | 1.6 | 0.00 | 0.00 | 0.00 | 64 | 1003.0 |
| 20260505001350 | 28 | 190 | 0.0 | 0.0 | 0.00 | 0.00 | 0.00 | 64 | 1003.0 |
| 20260505000850 | 28 | 169 | 0.0 | 0.0 | 0.00 | 0.00 | 0.00 | 64 | 1003.0 |
| 20260505000351 | 28 | 193 | 1.6 | 1.6 | 0.00 | 0.00 | 0.00 | 65 | 1002.0 |
| 20260504235851 | 28 | 214 | 3.2 | 3.2 | 0.00 | 0.00 | 0.00 | 65 | 1003.0 |
| 20260504235350 | 28 | 153 | 0.0 | 0.0 | 0.00 | 0.00 | 0.00 | 65 | 1002.0 |
| 20260504234851 | 28 | 216 | 3.2 | 3.2 | 0.00 | 0.00 | 0.00 | 65 | 1003.0 |
| 20260504234351 | 28 | 215 | 0.0 | 1.6 | 0.00 | 0.00 | 0.00 | 66 | 1002.0 |
| 20260504233851 | 28 | 161 | 0.0 | 0.0 | 0.00 | 0.00 | 0.00 | 65 | 1002.0 |
| 20260504233351 | 28 | 174 | 1.6 | 1.6 | 0.00 | 0.00 | 0.00 | 66 | 1003.0 |
| 20260504232851 | 28 | 182 | 0.0 | 0.0 | 0.00 | 0.00 | 0.00 | 66 | 1002.0 |
| 20260504232351 | 28 | 284 | 4.8 | 4.8 | 0.00 | 0.00 | 0.00 | 66 | 1003.0 |
| 20260504231852 | 28 | 203 | 1.6 | 3.2 | 0.00 | 0.00 | 0.00 | 67 | 1003.0 |
| 20260504231351 | 28 | 216 | 3.2 | 4.8 | 0.00 | 0.00 | 0.00 | 67 | 1002.0 |
| 20260504230851 | 28 | 258 | 1.6 | 1.6 | 0.00 | 0.00 | 0.00 | 68 | 1002.0 |
| 20260504230351 | 28 | 213 | 1.6 | 3.2 | 0.00 | 0.00 | 0.00 | 68 | 1002.0 |
| 20260504225851 | 28 | 179 | 1.6 | 1.6 | 0.00 | 0.00 | 0.00 | 68 | 1002.0 |
| 20260504225353 | 28 | 217 | 3.2 | 4.8 | 0.00 | 0.00 | 0.00 | 68 | 1002.0 |
| 20260504224851 | 28 | 200 | 1.6 | 3.2 | 0.00 | 0.00 | 0.00 | 68 | 1002.0 |
| 20260504224350 | 28 | 252 | 3.2 | 3.2 | 0.00 | 0.00 | 0.00 | 68 | 1002.0 |
| 20260504223850 | 28 | 176 | 0.0 | 0.0 | 0.00 | 0.00 | 0.00 | 69 | 1002.0 |
| 20260504223351 | 28 | 162 | 0.0 | 0.0 | 0.00 | 0.00 | 0.00 | 69 | 1002.0 |
| 20260504222850 | 28 | 233 | 1.6 | 1.6 | 0.00 | 0.00 | 0.00 | 69 | 1002.0 |
| 20260504222350 | 28 | 210 | 4.8 | 4.8 | 0.00 | 0.00 | 0.00 | 69 | 1002.0 |
| 20260504221851 | 28 | 190 | 3.2 | 3.2 | 0.00 | 0.00 | 0.00 | 70 | 1002.0 |
| 20260504221352 | 28 | 205 | 1.6 | 1.6 | 0.00 | 0.00 | 0.00 | 70 | 1002.0 |
| 20260504220403 | 28 | 169 | 0.0 | 0.0 | 0.00 | 0.00 | 0.00 | 71 | 1002.0 |
| 20260504215850 | 28 | 167 | 0.0 | 1.6 | 0.00 | 0.00 | 0.00 | 71 | 1003.0 |
| 20260504215352 | 28 | 202 | 4.8 | 4.8 | 0.00 | 0.00 | 0.00 | 71 | 1003.0 |
| 20260504214853 | 28 | 314 | 1.6 | 3.2 | 0.00 | 0.00 | 0.00 | 72 | 1003.0 |
| 20260504214351 | 28 | 230 | 4.8 | 4.8 | 0.00 | 0.00 | 0.00 | 72 | 1003.0 |
| 20260504213851 | 28 | 227 | 0.0 | 1.6 | 0.00 | 0.00 | 0.00 | 72 | 1003.0 |
| 20260504213351 | 28 | 281 | 4.8 | 4.8 | 0.00 | 0.00 | 0.00 | 72 | 1003.0 |
| 20260504212851 | 28 | 226 | 1.6 | 3.2 | 0.00 | 0.00 | 0.00 | 73 | 1003.0 |
| 20260504212351 | 28 | 196 | 0.0 | 0.0 | 0.00 | 0.00 | 0.00 | 73 | 1003.0 |
| 20260504211852 | 28 | 203 | 8.0 | 11.3 | 0.00 | 0.00 | 0.00 | 72 | 1003.0 |
| 20260504211352 | 28 | 267 | 4.8 | 9.7 | 0.00 | 0.00 | 0.00 | 72 | 1003.0 |
| 20260504210851 | 28 | 245 | 1.6 | 3.2 | 0.00 | 0.00 | 0.00 | 72 | 1003.0 |
| 20260504210352 | 28 | 276 | 3.2 | 4.8 | 0.00 | 0.00 | 0.00 | 72 | 1003.0 |
| 20260504205851 | 28 | 284 | 4.8 | 8.0 | 0.00 | 0.00 | 0.00 | 72 | 1003.0 |
| 20260504205352 | 28 | 257 | 14.5 | 17.7 | 0.00 | 0.00 | 0.00 | 71 | 1003.0 |
| 20260504204851 | 28 | 297 | 4.8 | 8.0 | 0.00 | 0.00 | 0.00 | 71 | 1003.0 |
| 20260504204352 | 29 | 315 | 8.0 | 14.5 | 0.00 | 0.00 | 0.00 | 70 | 1003.0 |
| 20260504203852 | 29 | 154 | 0.0 | 0.0 | 0.00 | 0.00 | 0.00 | 70 | 1003.0 |
| 20260504203352 | 30 | 8 | 4.8 | 8.0 | 0.00 | 0.00 | 0.00 | 69 | 1003.0 |
| 20260504202853 | 30 | 260 | 0.0 | 1.6 | 0.00 | 0.00 | 0.00 | 69 | 1003.0 |
| 20260504202353 | 30 | 287 | 4.8 | 8.0 | 0.00 | 0.00 | 0.00 | 69 | 1003.0 |
| 20260504201851 | 30 | 323 | 4.8 | 8.0 | 0.00 | 0.00 | 0.00 | 70 | 1003.0 |
| 20260504201351 | 30 | 114 | 4.8 | 4.8 | 0.00 | 0.00 | 0.00 | 70 | 1003.0 |
| 20260504200851 | 30 | 267 | 1.6 | 3.2 | 0.00 | 0.00 | 0.00 | 70 | 1003.0 |
| 20260504200351 | 30 | 282 | 1.6 | 3.2 | 0.00 | 0.00 | 0.00 | 70 | 1002.0 |
| 20260504195854 | 30 | 182 | 3.2 | 3.2 | 0.00 | 0.00 | 0.00 | 70 | 1003.0 |
| 20260504195350 | 30 | 186 | 3.2 | 3.2 | 0.00 | 0.00 | 0.00 | 70 | 1003.0 |
| 20260504194850 | 30 | 245 | 6.4 | 8.0 | 0.00 | 0.00 | 0.00 | 69 | 1002.0 |
| 20260504194352 | 30 | 247 | 4.8 | 4.8 | 0.00 | 0.00 | 0.00 | 69 | 1003.0 |
| 20260504193850 | 30 | 185 | 0.0 | 1.6 | 0.00 | 0.00 | 0.00 | 69 | 1003.0 |
| 20260504193352 | 30 | 189 | 1.6 | 3.2 | 0.00 | 0.00 | 0.00 | 69 | 1003.0 |
| 20260504192851 | 30 | 157 | 4.8 | 8.0 | 0.00 | 0.00 | 0.00 | 69 | 1003.0 |
| 20260504192351 | 30 | 189 | 1.6 | 3.2 | 0.00 | 0.00 | 0.00 | 70 | 1003.0 |
| 20260504191854 | 30 | 175 | 6.4 | 8.0 | 0.00 | 0.00 | 0.00 | 70 | 1003.0 |
| 20260504191351 | 30 | 197 | 1.6 | 3.2 | 0.00 | 0.00 | 0.00 | 70 | 1003.0 |
| 20260504190850 | 30 | 198 | 1.6 | 3.2 | 0.00 | 0.00 | 0.00 | 70 | 1003.0 |
| 20260504190353 | 30 | 156 | 3.2 | 4.8 | 0.00 | 0.00 | 0.00 | 70 | 1003.0 |
| 20260504185851 | 30 | 215 | 4.8 | 4.8 | 0.00 | 0.00 | 0.00 | 69 | 1003.0 |
| 20260504185353 | 30 | 176 | 3.2 | 4.8 | 0.00 | 0.00 | 0.00 | 69 | 1003.0 |
| 20260504184850 | 30 | 166 | 3.2 | 4.8 | 0.00 | 0.00 | 0.00 | 69 | 1003.0 |
| 20260504184353 | 30 | 164 | 3.2 | 3.2 | 0.00 | 0.00 | 0.00 | 69 | 1003.0 |
| 20260504183851 | 30 | 188 | 1.6 | 3.2 | 0.00 | 0.00 | 0.00 | 69 | 1003.0 |
| 20260504183350 | 30 | 214 | 4.8 | 9.7 | 0.00 | 0.00 | 0.00 | 69 | 1003.0 |
| 20260504182851 | 30 | 209 | 6.4 | 8.0 | 0.00 | 0.00 | 0.00 | 69 | 1003.0 |
| 20260504182351 | 30 | 222 | 6.4 | 8.0 | 0.00 | 0.00 | 0.00 | 69 | 1003.0 |
| 20260504181852 | 30 | 242 | 3.2 | 3.2 | 0.00 | 0.00 | 0.00 | 69 | 1003.0 |
| 20260504181351 | 30 | 225 | 9.7 | 11.3 | 0.00 | 0.00 | 0.00 | 69 | 1003.0 |
| 20260504180853 | 30 | 209 | 6.4 | 9.7 | 0.00 | 0.00 | 0.00 | 69 | 1003.0 |
| 20260504180351 | 30 | 228 | 8.0 | 12.9 | 0.00 | 0.00 | 0.00 | 69 | 1003.0 |
| 20260504175851 | 30 | 214 | 8.0 | 14.5 | 0.00 | 0.00 | 0.00 | 69 | 1003.0 |
| 20260504175351 | 30 | 217 | 4.8 | 8.0 | 0.00 | 0.00 | 0.00 | 69 | 1003.0 |
| 20260504174851 | 30 | 256 | 8.0 | 11.3 | 0.00 | 0.00 | 0.00 | 70 | 1003.0 |
| 20260504174351 | 30 | 189 | 4.8 | 8.0 | 0.00 | 0.00 | 0.00 | 70 | 1003.0 |
| 20260504173851 | 30 | 285 | 3.2 | 4.8 | 0.00 | 0.00 | 0.00 | 71 | 1003.0 |
| 20260504173352 | 30 | 218 | 8.0 | 12.9 | 0.00 | 0.00 | 0.00 | 71 | 1003.0 |
| 20260504172852 | 30 | 188 | 8.0 | 9.7 | 0.00 | 0.00 | 0.00 | 71 | 1003.0 |
| 20260504172352 | 30 | 195 | 4.8 | 9.7 | 0.00 | 0.00 | 0.00 | 71 | 1003.0 |
| 20260504171851 | 30 | 196 | 8.0 | 12.9 | 0.00 | 0.00 | 0.00 | 71 | 1003.0 |
| 20260504171352 | 30 | 170 | 3.2 | 4.8 | 0.00 | 0.00 | 0.00 | 71 | 1003.0 |
| 20260504170853 | 30 | 219 | 11.3 | 12.9 | 0.00 | 0.00 | 0.00 | 70 | 1003.0 |
| 20260504170351 | 30 | 204 | 4.8 | 9.7 | 0.00 | 0.00 | 0.00 | 70 | 1003.0 |
| 20260504160351 | 30 | 174 | 11.3 | 12.9 | 0.00 | 0.00 | 0.00 | 78 | 1003.0 |
| 20260504150853 | 31 | 213 | 8.0 | 9.7 | 0.00 | 0.00 | 0.00 | 72 | 1003.0 |
| 20260504150351 | 31 | 214 | 8.0 | 9.7 | 0.00 | 0.00 | 0.00 | 71 | 1003.0 |
| 20260504140852 | 30 | 214 | 9.7 | 14.5 | 0.00 | 0.00 | 0.00 | 71 | 1001.0 |
| 20260504140353 | 30 | 145 | 12.9 | 12.9 | 0.00 | 0.00 | 0.00 | 71 | 1001.0 |
| 20260504130351 | 31 | 167 | 11.3 | 14.5 | 0.00 | 0.00 | 0.00 | 70 | 1001.0 |